Powrót do katalogu

IRIDIUM 33 DEB

AktywnyPO
NORAD 36493·DEBRIS·🇺🇸 United States

Wystrzelony Sep 14, 1997 z Baikonur Cosmodrome

Loading…

Następne Przeloty (najbliższe 24 godziny)

TLE

ŚwieżeSource: Space-Track

Epoka: Sep 13, 2026, 05:56 UTC

1 36493U 97051WK  26256.24752537  .00003836  00000-0  65789-3 0  9991
2 36493  86.3519 249.3137 0012745 118.9506 241.2988 14.68464619785437

Śledź IRIDIUM 33 DEB w czasie rzeczywistym z AllMySat

Download on the App Store